{"data":{"norad_id":51889,"intl_designator":"2022-022AP","name":"STARLINK-3547","alt_names":[],"object_type":"PAYLOAD","status":"ACTIVE","operator":null,"country":"US","launch_date":"2022-03-03","launch_site_code":"AFETR","launch_vehicle":null,"mission":null,"orbit_class":"UNKNOWN","rcs_meters":null,"size_class":null,"mass_kg":null,"dimensions":null,"purposes":["comms"],"wikipedia_slug":null,"has_3d_model":false,"image_url":null,"decayed_at":null,"tle_current":{"epoch":"2026-09-20T04:38:33.839808Z","epoch_age_seconds":82692,"freshness":"FRESH","line1":"1 51889U 22022AP  26263.19344722  .00000449  00000+0  24424-4 0  9996","line2":"2 51889  53.1595 189.4927 0001362  94.4575 265.6583 15.34384546252835","mean_motion":15.34384546,"eccentricity":0.0001362,"inclination_deg":53.1595,"raan_deg":189.4927,"arg_perigee_deg":94.4575,"mean_anomaly_deg":265.6583,"bstar":2.4424e-5,"rev_number":25283,"period_min":93.848703296312,"perigee_km":461.81744444062,"apogee_km":463.68090183419,"semimajor_km":6840.8861731374,"source":"CELESTRAK","updated_at":"2026-09-20T09:00:39.972972Z"}}}